Content
SEND FEEDBACK

Daily
Averages
Monthly
Summary
United States of America

RAPID CITY, SOUTH DAKOTA


Home > North America > United States > South Dakota
Elevation: 3162 feet     Latitude: 44 03N     Longitude: 103 04W

WEATHER
 
SELECT A DAY
Number of Records: 200,436;   Date Range: 1/1/95 - 8/30/14
 
SHARE

PRINT THIS DATA

[ ← Previous Day ]
WEATHER ALMANAC - MARCH 6, 2013
[ Next Day → ]
[ °C ]   °F
Weather ElementAverageHighLow
Temperature29 °F48 °F (2:52 pm)9 °F (1:52 am)
Dewpoint15.5 °F21.9 °F (9:52 pm)6.1 °F (1:52 am)
Humidity61.6 %88 % (1:52 am)29 % (2:52 pm)
Barometer30.06 in30.29 in (1:52 am)29.86 in (11:52 pm)
Wind Speed9.1 mph13.8 mph (2:52 pm)
Wind Gust19.6 mph (1:52 pm)
Weather ElementAverage
Visibility10 mi
Wind DirectionSE (133.9 °)

Weather ElementTotal
Precipitation---
Heating Degree Days36.5 (Base 65)
Averaged from 23 records on March 6, 2013
WEATHER CONDITIONS BREAKOUT
WIND DIRECTION BREAKOUT
WEATHER BY HOUR - MARCH 6, 2013
[ °C ]   °F
Local TimeTemperatureDewpointHumidityBarometerVisibilityWind DirectionWind SpeedGust SpeedPrecipitationEventsConditions
1:52 AM9.0 °F6.1 °F88 %30.29 in10.0 miSE (140°)5.8 mphClear
2:52 AM10.9 °F7.0 °F84 %30.25 in10.0 miSSE (160°)11.5 mphClear
3:52 AM10.9 °F8.1 °F88 %30.23 in10.0 miSE (140°)9.2 mphClear
4:52 AM10.9 °F8.1 °F88 %30.22 in10.0 miSE (130°)9.2 mphClear
5:52 AM12.9 °F9.0 °F84 %30.23 in10.0 miESE (110°)9.2 mphClear
6:52 AM14.0 °F10.0 °F84 %30.22 in10.0 miESE (110°)6.9 mphClear
7:52 AM17.1 °F12.9 °F84 %30.22 in10.0 miESE (120°)4.6 mphClear
8:52 AM21.9 °F16.0 °F78 %30.20 in10.0 miESE (110°)5.8 mphClear
9:52 AM27.0 °F16.0 °F63 %30.17 in10.0 miSE (140°)9.2 mphClear
10:52 AM34.0 °F17.1 °F50 %30.12 in10.0 miSSE (160°)5.8 mphClear
11:52 AM37.9 °F18.0 °F45 %30.09 in10.0 miSE (130°)10.4 mphClear
12:52 PM43.0 °F18.0 °F37 %30.04 in10.0 miSE (140°)12.7 mph18.4 mphClear
1:52 PM45.0 °F18.0 °F34 %30.00 in10.0 miESE (120°)10.4 mph19.6 mphClear
2:52 PM48.0 °F17.1 °F29 %29.95 in10.0 miSSE (160°)13.8 mphClear
3:52 PM46.9 °F18.0 °F32 %29.94 in10.0 miSSE (150°)13.8 mphClear
4:52 PM45.0 °F18.0 °F34 %29.91 in10.0 miSE (140°)6.9 mphClear
5:52 PM39.9 °F17.1 °F40 %29.91 in10.0 miESE (110°)5.8 mphClear
6:52 PM37.0 °F19.0 °F48 %29.92 in10.0 miSSE (150°)8.1 mphClear
7:52 PM34.0 °F18.0 °F52 %29.91 in10.0 miSE (140°)4.6 mphClear
8:52 PM30.9 °F19.9 °F64 %29.91 in10.0 miESE (120°)9.2 mphClear
9:52 PM33.1 °F21.9 °F64 %29.89 in10.0 miSE (130°)13.8 mphClear
10:52 PM30.9 °F21.9 °F69 %29.88 in10.0 miSE (130°)13.8 mphClear
11:52 PM27.0 °F21.0 °F78 %29.86 in10.0 miSE (140°)8.1 mphClear
Hourly data recorded from KRAP, located miles away from Rapid City, South Dakota







STORIES FROM OUR PARTNERS